This is the latest recevied weather packets stored in our database for station/object N4DWK. If no packets are shown the sender has not sent any weather packets the latest 10 day(s).
| Time | Temp. | Humidity | Pressure | Rain* | Wind** | Luminosity | Snow |
|---|---|---|---|---|---|---|---|
| 1777742105 | 13.33° C | 55% | 1014.2 hPa | 0 mm | - | 178 W/m² | - |
| 1777741805 | 13.33° C | 56% | 1014.3 hPa | 0 mm | - | 135 W/m² | - |
| 1777741505 | 13.33° C | 56% | 1014.4 hPa | 0 mm | - | 114 W/m² | - |
| 1777741205 | 13.33° C | 56% | 1014.4 hPa | 0 mm | - | 91 W/m² | - |
| 1777740905 | 13.33° C | 55% | 1014.4 hPa | 0 mm | - | 100 W/m² | - |
| 1777740605 | 12.78° C | 56% | 1014.4 hPa | 0 mm | - | 113 W/m² | - |
| 1777740305 | 13.33° C | 55% | 1014.4 hPa | 0 mm | - | 98 W/m² | - |
| 1777740005 | 13.33° C | 55% | 1014.4 hPa | 0 mm | - | 91 W/m² | - |
| 1777739705 | 13.33° C | 55% | 1014.3 hPa | 0 mm | - | 107 W/m² | - |
| 1777739406 | 13.33° C | 55% | 1014.4 hPa | 0 mm | - | 105 W/m² | - |
| 1777739105 | 12.78° C | 56% | 1014.4 hPa | 0 mm | - | 111 W/m² | - |
| 1777738805 | 12.78° C | 55% | 1014.5 hPa | 0 mm | - | 109 W/m² | - |
| 1777738505 | 12.78° C | 56% | 1014.4 hPa | 0 mm | - | 107 W/m² | - |
| 1777738205 | 12.78° C | 55% | 1014.6 hPa | 0 mm | - | 81 W/m² | - |
| 1777737605 | 12.78° C | 57% | 1014.4 hPa | 0 mm | - | 107 W/m² | - |
| 1777737305 | 12.78° C | 56% | 1014.5 hPa | 0 mm | - | 125 W/m² | - |
| 1777737005 | 12.78° C | 56% | 1014.5 hPa | 0 mm | - | 125 W/m² | - |
| 1777736705 | 13.33° C | 55% | 1014.5 hPa | 0 mm | - | 128 W/m² | - |
| 1777736406 | 12.78° C | 56% | 1014.6 hPa | 0 mm | - | 139 W/m² | - |
| 1777736105 | 12.78° C | 58% | 1014.9 hPa | 0 mm | - | 192 W/m² | - |
| 1777735805 | 12.78° C | 56% | 1015 hPa | 0 mm | - | 134 W/m² | - |
| 1777735505 | 12.78° C | 58% | 1015 hPa | 0 mm | - | 123 W/m² | - |
| 1777735205 | 12.78° C | 58% | 1014.9 hPa | 0 mm | - | 120 W/m² | - |
| 1777734906 | 12.78° C | 58% | 1014.8 hPa | 0 mm | - | 109 W/m² | - |
| 1777734605 | 12.78° C | 59% | 1014.7 hPa | 0 mm | - | 113 W/m² | - |
* Rain latest hour (hover to see other rain measurements)
** Current wind speed in m/s (hover to see current wind gust speed)